Location: Fort Wayne
(41.1310°N, 85.1290°W)
Time: 00:55:09
(UTC-04:00)

Cosmos 2056 Rocket - Visible Passes

Search period start: 06 July 2015 00:00
Search period end: 16 July 2015 00:00
Orbit: 743 x 801 km, 74.0° (Epoch: 05 July)

Date Brightness Start Highest point End Pass type
(mag) Time Alt. Az. Time Alt. Az. Time Alt. Az.
06 Jul 6.3 00:02:33 10° W 00:06:02 17° NW 00:09:18 10° NNW visible
06 Jul 4.0 21:42:31 10° S 21:47:31 41° ESE 21:52:31 10° NNE visible
06 Jul 5.7 23:25:23 10° WSW 23:29:52 26° WNW 23:34:13 10° N visible
07 Jul 4.9 22:48:46 10° SW 22:53:49 41° WNW 22:58:49 10° N visible
08 Jul 4.0 22:12:33 10° SSW 22:17:54 67° WNW 22:23:12 10° NNE visible
09 Jul 6.5 23:21:41 10° W 23:24:56 16° NW 23:27:57 10° NNW visible
10 Jul 6.0 22:44:23 10° WSW 22:48:44 24° WNW 22:52:57 10° N visible
11 Jul 5.2 22:07:42 10° SW 22:12:41 38° WNW 22:17:34 10° N visible
13 Jul 6.7 22:40:50 10° W 22:43:49 14° NW 22:46:33 10° NNW visible
14 Jul 6.6 05:43:15 10° NNE 05:46:46 19° NE 05:50:25 10° ESE visible
14 Jul 6.4 22:03:24 10° WSW 22:07:36 22° WNW 22:11:39 10° N visible
15 Jul 7.1 05:08:46 10° NNE 05:10:30 12° NE 05:12:30 10° ENE visible
